Regional Weather Roundup
Issued by NWS Northern Indiana

Home | Current Version | Previous Version | Graphics & Text | Print | Product List | Glossary On
Versions: 1 2 3 4 5 6 7 8 9 10 11 12 13 14 15 16 17 18 19 20 21 22 23 24 25 26 27 28 29 30 31 32 33 34 35 36 37 38 39 40 41 42 43 44 45 46 47 48 49 50
000
ASUS43 KIWX 252310
RWRIWX

KIWX WEATHER ROUNDUP
NATIONAL WEATHER SERVICE NORTHERN INDIANA
700 PM EDT FRI MAY 25 2018

NOTE: "FAIR" INDICATES FEW OR NO CLOUDS BELOW 12,000 FEET WITH NO
SIGNIFICANT WEATHER AND/OR OBSTRUCTIONS TO VISIBILITY.

* THESE STATIONS ARE NOT UNDER NWS QUALITY CONTROL. THEY ALSO MAY NOT
  REPORT WEATHER SUCH AS PRECIPITATION OR FOG.

INZ001>027-260000-
NORTHERN INDIANA

CITY           SKY/WX    TMP DP  RH WIND       PRES   REMARKS
GARY*          MOSUNNY   82  55  39 E6        29.78F
VALPARAISO     FAIR      88  54  31 S6        29.79F
LAPORTE*       FAIR      85  56  37 SW6       29.80F
KNOX*          PTSUNNY   88  54  31 S8        29.79F
SOUTH BEND     FAIR      84  57  39 S8        29.81F
ELKHART*       FAIR      90  55  31 S6        29.81F
GOSHEN         FAIR      84  52  33 S8        29.82F
ROCHESTER*     FAIR      88  46  23 S3        29.82F
WARSAW*        FAIR      84  52  32 SW3       29.83F
AUBURN*        FAIR      82  52  34 SW3       29.85S
FORT WAYNE     FAIR      88  50  27 SW10      29.84S
PERU/GRISSOM   FAIR      87  54  32 W7        29.82F
MARION*        PTSUNNY   85  53  32 SW9       29.85S

$$
INZ028>050-260000-
CENTRAL INDIANA

CITY           SKY/WX    TMP DP  RH WIND       PRES   REMARKS
LAFAYETTE      FAIR      86  56  35 S6        29.80F
MUNCIE*        FAIR      88  53  30 SW7       29.86R
INDIANAPOLIS   FAIR      85  56  37 S10       29.85F

$$
MIZ043>046-050>051-056>058-064>065-071>073-077>080-260000-
SOUTHWEST LOWER MICHIGAN

CITY           SKY/WX    TMP DP  RH WIND       PRES   REMARKS
BATTLE CREEK   FAIR      83  58  42 SW8       29.82F
BENTON HARBOR  FAIR      85  57  38 CALM      29.79F
COLDWATER*     FAIR      85  43  22 SW6       29.83F
HILLSDALE*     FAIR      82  50  32 S6        29.85S
HOLLAND        FAIR      82  60  47 SW5       29.80F
GRAND RAPIDS   PTSUNNY   83  60  45 W9        29.80F
KALAMAZOO      FAIR      85  59  41 W6        29.81F
STURGIS*       FAIR      83  56  39 SW6       29.82F
THREE RIVERS*  FAIR      84  52  33 S6        29.82F

$$
OHZ001>008-015>018-024>025-260000-
NORTHWEST OHIO

CITY           SKY/WX    TMP DP  RH WIND       PRES   REMARKS
DEFIANCE       FAIR      85  50  29 SW6       29.83F
FINDLAY        FAIR      85  51  31 S12       29.83F
TOLEDO EXPRESS FAIR      87  48  25 SW7       29.82F
TOLEDO METCALF FAIR      87  43  21 SW7       29.83F
LIMA           FAIR      84  49  29 SW10      29.85F

$$
AND FOR LAKE MICHIGAN COASTAL AND OPEN LAKE BUOY OBSERVATIONS

STATION/POSITION TEMP    WIND        PRES    VSBY  WAVE
                 AIR SEA DIR/SP/G                  HT/PER
                 (F)     (DEG/KT/KT) (MB)    (MI)  (FT/S)
CALUMET HARBOR    72      90/  7/  9 1007.9F
MICHIGAN CITY     74      40/ 13/ 14   N/A
BURNS HARBOR      70      80/ 11/ 12 1009.1F
SAINT JOSEPH      82      20/  2/  2 1009.5
SOUTH LAKE BUOY   53 39  150/ 10/ 10 1008.5F         0
4 MI NW BRIDGMAN  75 70   70/  4/  4 1008.5          0
MICHIGAN CITY     68 62   80/  6/  8   N/A           0

$$
&&




USA.gov is the U.S. government's official web portal to all federal, state and local government web resources and services.